{"data":{"norad_id":67216,"intl_designator":"2025-304AA","name":"STARLINK-36212","alt_names":[],"object_type":"PAYLOAD","status":"ACTIVE","operator":null,"country":"US","launch_date":"2025-12-17","launch_site_code":"AFWTR","launch_vehicle":null,"mission":null,"orbit_class":"UNKNOWN","rcs_meters":null,"size_class":null,"mass_kg":null,"dimensions":null,"purposes":["comms"],"wikipedia_slug":null,"has_3d_model":false,"image_url":null,"decayed_at":null,"tle_current":{"epoch":"2026-09-19T18:24:54.576576Z","epoch_age_seconds":138716,"freshness":"FRESH","line1":"1 67216U 25304AA  26262.76729834  .00004015  00000+0  34396-3 0  9997","line2":"2 67216  70.0013  45.1917 0002860 272.1762  87.9069 14.98341668 42954","mean_motion":14.98341668,"eccentricity":0.000286,"inclination_deg":70.0013,"raan_deg":45.1917,"arg_perigee_deg":272.1762,"mean_anomaly_deg":87.9069,"bstar":0.00034396,"rev_number":4295,"period_min":96.106250713973,"perigee_km":570.03206400373,"apogee_km":574.0075536984,"semimajor_km":6950.1568088511,"source":"CELESTRAK","updated_at":"2026-09-20T09:00:43.484663Z"}}}